Temp
62 62 61 59 58 58 57 56 59 59 60 60 61 60 61 60 61 60 56 54 53 53 55 60 61 63 61 60 63 63 61 61 58 58 51 53 53 51 53 56 60 61 63
61 58 58 60 60 58 56 54 54 53 55 60 60 56 54 55 60 60 60 59 59 60 62 64 64 66 62 64 65 62 61 61 53 47 50 51 50 51 52 56 63 68 65
59 58 59 56 52 54 54 53 52 51 57 60 60 61 60 60 62 64 64 63 62 61 63 63 63 63 63 64 62 63 60 55 51 48 48 51 50 50 55 60 63 65 66
60 59 58 53 50 50 54 53 53 56 51 55 61 62 62 61 60 61 62 63 63 64 63 64 64 63 60 60 60 56 55 51 50 50 50 49 51 51 55 60 59 63 65
59 60 54 51 50 51 52 51 52 53 56 60 60 59 59 58 57 58 60 60 60 61 63 65 63 58 55 56 58 52 52 51 51 50 53 54 55 58 56 63 60 62 58
58 58 53 52 53 54 56 57 56 55 58 57 59 56 56 58 48 49 53 57 58 58 58 61 60 58 54 52 52 52 53 55 55 56 58 58 57 61 62 60 61 61 57
59 59 55 55 51 51 53 52 53 52 57 56 57 56 57 58 47 48 50 56 55 54 54 55 51 53 53 54 53 53 53 52 53 59 59 60 60 61 61 60 61 60 61
57 58 56 58 52 51 52 51 50 51 50 50 50 50 51 53 47 46 49 51 50 50 50 51 52 56 57 56 58 62 61 62 61 64 64 64 64 63 63 63 62 60 59
55 56 57 58 56 52 55 54 51 53 52 52 52 50 50 51 45 45 51 51 50 50 51 52 59 60 46 47 63 64 64 64 53 54 53 50 49 48 52 62 64 60 64
55 56 58 59 56 53 57 58 56 58 56 56 53 52 50 58 44 44 51 53 53 53 60 61 48 53 45 45 63 65 63 64 66 67 67 59 52 61 49 59 65 62 64
57 58 58 58 58 60 61 56 56 53 53 54 55 60 62 58 56 45 46 62 60 65 68 67 66 46 45 45 45 63 58 56 63 67 69 70 70 69 71 69 68 66 65
58 58 58 60 63 65 62 61 61 59 59 59 62 65 65 65 46 46 45 47 51 67 67 68 63 45 45 46 50 46 46 47 65 63 70 65 67 69 71 71 69 69 70
60 60 62 63 65 65 63 61 64 63 62 64 63 61 63 65 66 49 47 48 49 66 68 55 49 47 46 51 45 46 44 68 66 67 60 69 72 73 71 71 72 71 69
62 62 63 63 62 64 65 62 63 61 63 64 65 63 68 67 65 66 70 68 53 64 58 69 61 55 51 58 64 65 72 71 69 70 70 66 68 72 72 72 71 71 71
62 62 62 66 65 65 65 63 66 58 54 63 64 65 65 63 58 45 48 63 64 60 56 72 71 71 70 71 71 72 72 72 70 71 71 69 71 72 72 72 72 71 69
61 67 65 63 69 68 66 63 41 44 42 41 40 47 62 43 40 41 42 42 44 44 68 69 68 69 68 69 69 70 71 67 70 71 71 71 70 71 70 71 71 69 68
61 62 68 64 68 70 69 67 66 53 43 42 42 41 40 39 41 42 42 43 47 53 68 67 67 67 67 68 68 69 68 69 69 71 70 69 70 70 69 69 69 68 67
65 48 66 71 68 68 70 71 70 68 66 66 47 50 43 43 43 44 45 51 67 64 68 67 66 67 67 67 67 67 68 68 68 68 69 68 68 68 68 67 68 65 65
71 70 70 70 72 67 72 72 71 69 68 67 69 58 56 46 46 46 50 67 65 65 66 66 67 67 67 67 67 67 65 67 65 67 67 67 67 68 67 67 67 54 56
72 53 58 69 73 73 72 71 71 69 68 67 66 64 65 64 66 65 66 65 65 65 65 66 66 67 68 67 67 67 67 67 67 67 67 67 67 68 67 66 67 65 64
72 71 58 76 73 72 72 70 70 70 69 68 65 59 34 64 65 65 65 64 64 64 63 64 67 67 68 67 67 67 67 67 67 66 67 67 67 66 67 67 66 66 64
73 73 74 73 73 71 70 72 71 70 69 69 69 64 44 68 66 65 65 64 65 65 65 65 67 67 67 66 65 65 65 65 65 65 66 67 67 67 67 66 65 65 64
74 74 74 74 73 60 72 72 71 70 70 69 69 69 68 67 66 65 64 64 64 64 65 65 65 65 65 66 66 67 64 62 63 66 66 66 66 65 66 64 64 63 62
78 76 74 73 72 73 71 71 71 58 68 69 68 68 67 67 66 64 65 65 65 65 65 64 64 63 63 63 65 66 61 56 60 64 66 66 65 63 65 64 63 62 62
73 71 72 73 73 72 74 72 71 70 69 69 68 68 68 67 67 65 65 65 65 65 63 64 63 63 62 60 59 58 42 33 49 38 66 66 64 62 64 63 62 62 61
72 74 70 75 76 75 74 73 71 71 69 69 69 68 68 68 67 66 66 64 65 65 63 64 63 62 61 60 54 38 34 34 45 35 54 66 64 62 62 62 61 62 60
MSLP
1024.86 1024.78 1024.66 1024.67 1024.30 1023.84 1023.63 1023.44 1022.88 1022.34 1021.89 1021.55 1021.30 1021.15 1021.00 1020.89 1020.62 1020.81 1021.02 1021.00 1020.72 1020.50 1020.27 1020.00 1019.70 1019.51 1019.67 1019.70 1019.62 1019.40 1019.16 1018.95 1018.95 1019.36 1020.34 1020.29 1020.24 1020.34 1020.09 1019.80 1019.25 1018.69 1018.30
1025.32 1025.43 1025.20 1024.60 1024.33 1024.05 1023.98 1023.88 1023.74 1023.34 1022.67 1022.00 1021.87 1021.99 1021.93 1021.69 1021.25 1021.05 1020.80 1020.89 1020.66 1020.27 1019.72 1019.41 1019.18 1019.23 1019.45 1019.29 1018.97 1018.92 1019.08 1019.46 1020.23 1020.40 1020.42 1020.16 1020.20 1020.22 1020.06 1019.32 1018.63 1017.93 1017.70
1025.85 1025.50 1025.14 1025.23 1025.28 1024.76 1024.39 1024.14 1023.82 1023.62 1023.17 1022.43 1022.15 1021.77 1021.59 1021.30 1020.95 1020.70 1020.64 1020.47 1020.56 1020.46 1020.09 1019.68 1019.50 1019.50 1019.30 1019.17 1019.47 1019.05 1019.33 1020.22 1020.64 1020.64 1020.25 1020.04 1020.10 1020.07 1019.50 1018.67 1018.01 1017.55 1017.10
1025.73 1025.50 1025.46 1025.70 1025.67 1025.34 1024.68 1024.45 1023.94 1023.45 1023.54 1023.04 1022.15 1021.68 1021.40 1021.41 1021.57 1021.33 1020.83 1020.40 1020.23 1020.05 1020.09 1019.93 1019.75 1019.73 1019.93 1019.98 1019.73 1020.06 1020.25 1020.42 1020.42 1020.24 1019.83 1019.88 1019.87 1019.83 1019.38 1018.09 1017.39 1017.03 1016.63
1025.87 1025.72 1026.06 1026.22 1025.91 1025.44 1025.13 1024.79 1024.36 1023.86 1023.33 1022.61 1022.45 1022.14 1022.10 1022.21 1022.38 1021.97 1021.30 1020.85 1020.61 1020.34 1020.20 1020.07 1020.19 1020.87 1021.05 1020.99 1020.61 1020.65 1020.55 1020.45 1020.30 1020.02 1019.47 1019.05 1018.95 1018.72 1018.34 1017.57 1017.33 1016.84 1016.80
1026.33 1026.17 1026.41 1026.36 1025.86 1025.33 1024.79 1024.48 1024.22 1024.01 1023.41 1023.17 1022.82 1022.91 1022.75 1022.51 1023.07 1022.73 1022.27 1021.48 1021.23 1021.11 1020.84 1020.66 1020.87 1020.98 1021.26 1021.29 1021.13 1021.00 1020.86 1020.34 1019.94 1019.41 1018.74 1018.39 1018.63 1018.15 1018.06 1017.72 1017.23 1016.57 1016.19
1026.53 1026.22 1026.34 1026.13 1026.22 1025.89 1025.52 1025.21 1024.82 1024.46 1023.82 1023.55 1023.26 1023.06 1022.89 1022.83 1023.37 1023.08 1022.52 1022.03 1021.95 1021.85 1021.74 1021.66 1021.77 1021.71 1021.56 1021.45 1021.34 1021.10 1020.89 1020.56 1020.25 1019.38 1018.71 1018.48 1018.29 1018.37 1018.27 1017.76 1017.28 1017.00 1016.32
1027.04 1026.73 1026.48 1026.24 1026.33 1026.15 1025.86 1025.58 1025.30 1024.97 1024.69 1024.44 1024.17 1024.02 1023.84 1023.69 1023.59 1023.28 1022.94 1022.74 1022.65 1022.57 1022.40 1022.26 1022.10 1021.89 1021.86 1021.64 1021.16 1020.42 1020.12 1019.96 1019.89 1019.32 1018.98 1018.90 1018.70 1018.60 1018.41 1018.00 1017.63 1017.19 1016.42
1027.39 1027.05 1026.77 1026.43 1026.06 1026.27 1025.72 1025.54 1025.47 1025.13 1024.83 1024.63 1024.40 1024.27 1024.01 1023.89 1023.91 1023.62 1023.19 1023.14 1023.07 1022.90 1022.66 1022.58 1022.05 1021.86 1022.34 1021.76 1020.81 1020.03 1019.73 1019.60 1020.03 1019.99 1019.91 1019.82 1019.68 1019.57 1019.39 1018.40 1016.89 1016.42 1015.21
1027.66 1027.38 1026.93 1026.68 1026.46 1026.33 1025.78 1025.43 1025.39 1025.00 1024.73 1024.44 1024.38 1024.32 1024.25 1023.76 1024.21 1023.98 1023.27 1023.37 1023.09 1022.91 1022.50 1022.05 1022.53 1022.63 1022.50 1022.03 1021.09 1020.26 1019.74 1019.67 1019.25 1018.85 1018.71 1018.94 1019.27 1018.30 1019.02 1018.71 1017.37 1016.53 1015.67
1027.72 1027.42 1027.04 1026.82 1026.52 1026.20 1025.70 1025.56 1025.28 1025.29 1025.04 1024.72 1024.41 1024.01 1023.75 1023.82 1023.99 1024.05 1023.40 1022.82 1022.66 1021.82 1021.14 1021.37 1022.05 1022.55 1022.45 1022.22 1021.92 1021.16 1021.03 1020.97 1019.43 1018.73 1017.97 1017.60 1017.42 1016.95 1016.59 1016.78 1016.77 1016.61 1015.86
1027.69 1027.41 1027.15 1026.79 1026.35 1025.85 1025.67 1025.46 1025.14 1024.89 1024.43 1024.15 1023.76 1023.01 1023.09 1022.89 1024.08 1024.14 1024.03 1023.65 1022.97 1022.06 1021.65 1021.93 1022.39 1022.66 1022.45 1022.15 1021.87 1021.48 1020.88 1020.33 1018.67 1018.18 1017.23 1016.93 1016.60 1016.20 1016.15 1016.19 1016.31 1016.24 1015.99
1027.56 1027.32 1026.97 1026.61 1026.28 1025.93 1025.74 1025.54 1024.94 1024.71 1024.40 1024.02 1023.85 1023.77 1023.28 1023.20 1023.06 1023.51 1023.68 1023.39 1023.21 1022.40 1022.43 1022.87 1022.43 1022.15 1021.77 1021.62 1021.55 1020.88 1020.11 1019.03 1018.72 1017.63 1017.36 1016.76 1016.48 1016.20 1016.00 1015.69 1015.32 1015.12 1015.02
1027.32 1027.08 1026.90 1026.60 1026.41 1026.16 1026.02 1025.89 1025.70 1025.77 1025.40 1024.97 1024.41 1024.12 1023.48 1023.63 1024.11 1023.88 1023.00 1023.15 1022.97 1022.34 1022.27 1021.93 1021.67 1021.70 1021.44 1020.96 1020.29 1019.90 1019.36 1019.04 1018.59 1017.63 1017.15 1016.90 1016.67 1015.97 1015.72 1015.75 1015.10 1014.58 1013.86
1027.46 1027.17 1026.97 1026.53 1026.28 1026.21 1026.50 1027.07 1026.84 1027.59 1027.54 1026.55 1025.89 1025.50 1025.26 1025.29 1026.13 1026.37 1025.81 1024.87 1024.22 1023.46 1023.00 1021.58 1021.17 1020.91 1020.60 1020.29 1019.97 1019.67 1019.34 1018.98 1018.48 1017.96 1017.29 1016.78 1016.33 1016.09 1015.90 1015.68 1015.21 1014.67 1014.11
1027.58 1027.00 1027.07 1026.64 1026.01 1025.87 1026.27 1027.34 1028.51 1028.21 1028.28 1028.14 1027.95 1027.39 1026.31 1027.34 1026.98 1026.44 1025.81 1025.10 1024.34 1023.66 1022.71 1021.86 1021.51 1021.20 1020.95 1020.66 1020.28 1019.85 1019.58 1019.39 1018.93 1018.32 1017.88 1017.47 1017.00 1016.49 1016.36 1015.78 1015.53 1015.24 1014.69
1027.90 1027.65 1026.67 1026.54 1025.70 1025.40 1025.39 1025.76 1026.20 1028.43 1028.36 1028.02 1028.07 1027.96 1027.85 1027.77 1026.96 1026.40 1025.85 1025.33 1024.21 1023.38 1022.77 1022.31 1022.00 1021.76 1021.54 1021.20 1020.83 1020.45 1020.11 1020.03 1019.55 1018.87 1018.41 1018.04 1017.59 1016.99 1016.56 1016.17 1015.85 1015.78 1015.40
1027.64 1027.53 1026.52 1026.06 1025.90 1025.48 1025.20 1025.30 1025.72 1026.31 1026.74 1026.86 1027.68 1027.26 1027.56 1027.33 1026.89 1026.28 1025.48 1024.56 1023.88 1023.40 1023.07 1022.81 1022.55 1022.34 1022.11 1021.83 1021.56 1021.29 1020.96 1020.60 1020.17 1019.58 1019.07 1018.68 1018.26 1017.64 1017.14 1016.79 1016.42 1016.44 1016.19
1027.00 1026.98 1026.72 1026.19 1025.73 1025.77 1025.30 1025.37 1025.51 1025.94 1026.20 1026.26 1026.39 1026.33 1026.29 1026.69 1026.42 1026.00 1025.33 1024.62 1024.25 1023.92 1023.72 1023.43 1023.26 1022.99 1022.70 1022.38 1022.27 1022.03 1021.73 1021.23 1020.86 1020.20 1019.69 1019.22 1018.84 1018.19 1017.68 1017.39 1016.99 1016.84 1016.64
1027.05 1027.43 1027.24 1026.20 1025.49 1025.40 1025.42 1025.38 1025.50 1025.70 1025.89 1026.22 1026.51 1026.81 1026.39 1025.68 1025.85 1025.59 1025.36 1025.25 1024.91 1024.72 1024.55 1024.14 1023.89 1023.58 1023.18 1023.01 1022.73 1022.39 1021.88 1021.43 1021.13 1020.63 1020.17 1019.68 1019.31 1018.75 1018.27 1017.91 1017.54 1017.17 1017.11
1026.96 1026.90 1026.66 1025.53 1025.74 1025.75 1025.76 1025.80 1025.83 1025.70 1025.78 1026.11 1026.63 1027.49 1027.33 1026.53 1026.07 1025.98 1025.87 1025.80 1025.69 1025.51 1025.44 1024.99 1024.32 1024.06 1023.78 1023.59 1023.35 1022.96 1022.41 1022.02 1021.74 1021.38 1020.72 1020.11 1019.78 1019.21 1018.86 1018.47 1018.07 1017.74 1017.67
1027.13 1026.43 1026.19 1026.07 1026.08 1026.16 1026.17 1026.02 1025.93 1025.82 1025.91 1026.03 1026.21 1026.79 1027.09 1026.51 1026.37 1026.28 1026.33 1026.36 1026.26 1026.15 1026.00 1025.67 1025.00 1024.75 1024.60 1024.44 1024.19 1023.61 1023.15 1022.84 1022.55 1022.08 1021.30 1020.62 1020.21 1019.90 1019.42 1018.99 1018.69 1018.28 1018.10
1026.85 1026.41 1026.19 1026.21 1026.30 1026.62 1026.17 1026.12 1026.13 1026.12 1026.16 1026.31 1026.39 1026.43 1026.58 1026.66 1026.67 1026.71 1026.71 1026.82 1026.75 1026.67 1026.50 1026.30 1025.90 1025.55 1025.52 1025.13 1024.78 1024.21 1024.08 1024.04 1023.52 1022.61 1021.87 1021.26 1020.79 1020.73 1020.02 1019.63 1019.22 1019.03 1018.84
1026.64 1026.46 1026.28 1026.23 1026.52 1026.15 1026.29 1026.35 1026.34 1026.85 1026.69 1026.47 1026.70 1026.76 1026.86 1026.92 1026.94 1027.01 1026.96 1027.09 1027.06 1026.98 1026.95 1026.76 1026.64 1026.52 1026.29 1025.94 1025.56 1025.12 1025.63 1025.77 1024.80 1023.58 1022.53 1021.89 1021.47 1021.11 1020.68 1020.32 1019.94 1019.67 1019.41
1026.66 1026.97 1026.49 1026.27 1026.31 1026.34 1026.31 1026.43 1026.48 1026.57 1026.65 1026.83 1026.92 1026.95 1026.99 1027.09 1027.06 1027.15 1027.24 1027.31 1027.32 1027.25 1027.25 1027.18 1027.18 1027.00 1026.74 1026.80 1026.90 1026.78 1027.05 1026.68 1025.68 1025.15 1023.04 1022.41 1022.09 1021.94 1021.35 1020.94 1020.72 1020.16 1020.05
1027.26 1026.88 1027.06 1026.17 1026.19 1026.27 1026.30 1026.34 1026.49 1026.65 1026.77 1026.94 1027.06 1027.16 1027.24 1027.23 1027.24 1027.24 1027.36 1027.58 1027.49 1027.45 1027.52 1027.43 1027.50 1027.41 1027.30 1027.26 1027.76 1027.85 1027.46 1026.86 1026.00 1025.35 1024.33 1022.87 1022.62 1022.55 1022.29 1021.61 1021.34 1020.80 1020.59
Wind_Speed
11 12 12 11 9 9 9 11 11 12 8 9 10 9 9 9 8 8 7 5 4 3 2 4 7 4 3 3 4 4 7 5 8 7 1 3 2 3 4 6 6 6 7
10 11 9 12 13 11 10 8 10 12 8 7 6 7 7 6 6 8 4 5 6 6 5 5 6 5 4 3 5 4 6 5 5 5 4 2 2 2 5 6 2 4 4
10 8 10 11 11 14 10 9 7 6 9 7 8 7 5 5 7 5 3 4 2 5 6 6 5 5 6 7 7 6 5 3 3 4 4 1 1 1 4 5 4 3 6
8 10 10 11 9 8 9 10 10 5 4 8 7 6 8 10 9 9 8 6 6 4 5 6 6 7 10 9 7 8 5 3 4 5 2 1 1 1 5 4 2 2 5
9 9 10 8 7 6 7 7 8 8 5 5 6 8 10 8 7 10 9 7 6 5 3 5 6 7 7 8 7 5 4 1 3 2 3 2 2 1 2 3 5 5 4
11 10 7 10 8 11 7 5 4 4 6 8 7 6 4 5 9 10 10 5 6 5 5 6 8 8 7 7 7 5 3 4 4 2 2 5 4 3 2 3 4 6 4
9 11 9 6 8 9 11 11 11 8 8 7 9 9 9 9 10 8 11 7 6 6 7 7 5 4 4 2 1 4 3 1 5 7 4 6 5 6 5 6 5 5 6
10 10 9 10 8 7 9 9 8 7 7 6 7 7 7 7 10 8 8 7 6 6 5 4 2 2 5 4 3 2 3 3 3 3 4 4 4 5 5 6 8 9 4
9 9 10 11 10 9 11 10 7 6 5 5 5 5 5 5 9 8 5 3 5 4 3 3 2 3 6 9 5 5 6 5 7 4 5 6 7 7 8 9 5 5 5
9 9 9 8 8 7 6 7 5 5 6 5 6 5 7 6 8 6 4 5 4 2 3 4 4 7 7 10 7 6 6 6 6 5 3 7 10 9 11 8 7 7 8
8 6 7 7 6 6 7 5 3 4 4 4 4 6 7 7 8 9 12 5 4 3 5 6 7 5 6 7 8 7 6 9 6 6 5 3 4 5 5 5 6 7 8
5 6 6 6 4 4 6 5 6 4 3 2 3 4 7 6 5 6 7 7 10 6 6 5 5 5 7 8 9 6 8 9 7 6 3 2 4 5 6 6 7 7 7
7 7 8 7 6 6 9 8 9 9 8 9 9 7 6 4 5 8 5 4 5 3 6 3 6 9 12 9 12 11 11 3 5 5 3 6 6 5 5 5 7 8 11
7 7 7 7 5 6 5 6 9 8 7 7 8 8 9 9 10 11 8 4 6 2 5 2 2 7 5 6 4 2 6 6 7 7 5 4 5 6 7 7 8 6 7
6 7 5 5 6 7 10 9 9 10 8 9 8 7 8 9 9 8 7 8 8 6 11 5 6 6 7 7 7 8 8 9 8 8 8 7 7 7 9 8 8 7 8
5 4 6 2 5 5 5 8 7 8 5 7 8 11 7 9 8 9 9 10 11 11 2 6 7 7 8 8 8 8 8 9 9 8 8 8 8 8 9 8 8 9 9
3 4 1 1 5 5 5 5 5 4 2 9 9 9 8 5 9 9 8 10 9 10 6 6 6 7 7 7 8 8 9 9 11 9 8 9 9 9 9 8 8 9 10
4 5 4 6 5 6 6 6 6 7 7 6 8 8 7 7 8 11 14 5 5 6 7 7 7 7 7 7 8 8 9 9 9 9 9 9 9 9 9 9 9 10 10
4 5 6 5 4 4 5 5 6 6 6 6 7 3 5 4 3 2 9 7 7 7 7 7 7 7 7 7 7 7 8 8 8 8 8 9 9 9 9 9 9 9 9
2 3 5 8 5 5 5 6 5 5 5 6 7 9 9 5 7 8 8 8 8 8 8 7 7 7 7 7 7 7 8 8 8 9 9 9 9 9 9 10 10 10 10
4 4 5 3 6 6 5 5 5 5 5 5 6 6 6 7 7 7 7 8 8 8 8 8 7 7 7 8 8 8 9 9 9 10 10 9 9 9 9 9 9 10 9
5 4 5 5 5 6 5 4 5 5 6 6 4 5 7 4 6 7 7 7 7 7 7 7 7 7 7 8 8 8 9 9 9 10 10 10 9 10 9 9 10 9 10
4 4 4 4 4 1 1 5 6 5 5 5 6 5 5 5 6 6 6 6 6 6 7 7 8 8 8 7 8 8 9 10 11 10 10 10 9 10 9 9 10 10 10
2 3 4 5 6 4 5 4 4 2 5 5 5 5 5 5 5 6 5 5 5 6 6 6 7 10 9 9 9 9 10 10 10 11 13 10 9 9 9 10 10 11 10
7 3 7 4 4 4 2 3 4 4 5 5 5 4 4 4 4 5 5 5 5 5 6 6 7 9 10 13 13 14 11 10 10 11 11 9 10 13 10 9 11 9 11
3 4 3 4 2 2 2 2 3 4 4 4 4 4 4 4 4 4 4 5 5 5 5 5 7 9 11 11 14 10 9 10 11 12 12 8 9 10 11 10 13 9 11
Wind_Direction
357 1 356 355 323 324 341 350 341 333 348 17 30 26 26 23 30 53 41 21 29 4 303 236 252 267 290 287 283 301 272 347 322 26 22 297 273 281 301 290 251 238 183
3 5 343 356 3 358 356 3 13 5 351 11 40 41 17 6 2 358 28 16 2 344 352 348 30 14 331 283 270 332 356 8 12 312 291 251 243 316 288 273 256 268 304
8 326 18 1 17 344 12 1 331 30 2 12 7 9 13 349 348 340 332 313 285 303 338 341 348 337 321 340 325 320 11 41 327 270 277 227 189 306 294 252 250 250 245
327 22 10 15 349 343 1 6 358 48 2 341 356 336 8 21 4 347 336 316 313 299 307 322 328 349 6 339 355 20 13 329 289 275 291 273 138 287 267 276 274 322 333
25 12 28 353 347 348 350 20 4 10 348 6 358 26 26 33 17 355 354 19 4 352 347 342 46 17 14 10 2 350 339 309 262 294 288 12 64 131 8 5 344 316 294
21 13 32 3 6 358 17 9 38 36 24 21 28 29 15 33 6 350 339 11 21 18 2 11 36 30 14 11 22 28 6 307 288 310 35 70 80 102 78 332 319 350 7
0 11 24 35 18 10 16 17 16 14 24 27 21 18 20 24 6 4 350 42 34 28 27 24 14 5 360 17 34 294 182 322 338 337 9 20 43 20 347 323 0 330 340
17 13 18 25 24 23 19 20 13 16 20 24 30 28 22 21 7 16 29 38 39 36 31 22 10 65 60 301 247 353 48 58 36 345 354 12 352 339 320 307 300 294 278
20 15 11 5 35 13 14 16 13 14 31 26 21 19 7 17 3 7 31 58 59 59 54 19 356 48 20 322 312 51 68 56 157 216 265 284 287 280 285 299 346 324 344
359 350 3 14 15 8 24 36 26 37 46 42 48 25 16 39 42 351 296 146 88 114 138 112 68 12 343 327 345 32 52 30 1 354 220 227 231 249 214 256 299 329 347
353 350 1 15 15 24 48 42 56 82 54 60 64 71 77 34 59 7 351 81 120 127 86 88 74 16 343 331 319 358 359 321 307 272 282 243 280 247 247 208 281 302 317
7 24 34 44 51 75 66 35 49 28 62 24 78 94 90 75 30 63 9 358 331 73 64 65 86 342 300 285 293 334 292 288 275 325 338 6 353 359 6 341 322 293 295
66 80 77 73 74 48 37 29 39 31 28 37 40 31 34 52 50 150 186 231 250 23 26 20 285 274 265 259 250 267 263 299 329 345 332 343 6 339 284 313 313 233 243
104 91 90 72 60 53 53 15 54 27 32 30 27 39 43 49 29 7 3 150 181 244 174 139 330 288 266 292 310 253 8 4 349 346 348 332 308 358 13 3 345 345 308
82 90 70 69 51 63 61 26 42 44 17 13 16 44 15 34 26 346 344 3 352 4 309 36 32 24 23 22 24 25 26 8 3 359 355 349 7 6 353 5 356 346 344
67 62 69 29 74 85 90 109 85 100 87 62 46 28 85 45 352 336 337 357 349 319 7 33 29 24 24 19 13 12 18 11 358 358 360 356 352 348 351 352 356 351 346
63 8 112 28 47 45 35 24 102 123 209 119 85 65 55 10 354 355 336 310 354 334 34 32 27 22 17 12 9 9 7 10 347 356 357 355 352 347 347 353 357 357 343
1 202 297 30 16 359 32 42 42 38 38 86 93 64 59 24 10 357 335 306 48 35 34 27 24 19 15 11 7 9 356 5 359 354 1 358 355 346 356 354 4 356 346
341 36 333 346 31 323 26 42 46 48 37 40 36 32 84 189 245 7 341 28 29 29 20 22 14 12 10 7 5 5 348 7 359 356 1 357 356 351 357 355 1 355 345
101 128 293 310 27 40 40 38 43 45 41 42 39 21 3 14 31 28 34 26 24 26 17 11 13 6 6 6 3 355 356 6 4 358 358 360 360 357 357 358 3 355 8
329 315 279 285 44 30 41 36 28 23 36 43 60 44 306 331 27 28 27 26 23 20 17 359 8 8 8 6 2 358 356 6 8 359 354 358 0 360 357 2 0 2 26
314 353 20 38 36 41 14 29 23 25 27 21 31 107 257 6 26 28 30 26 21 21 17 6 5 14 12 5 3 354 1 4 3 356 349 356 8 357 1 4 6 5 8
352 359 42 55 59 190 55 29 26 23 25 25 14 23 24 29 26 24 32 24 22 20 18 18 11 16 15 3 4 2 10 1 346 350 345 357 6 356 4 1 3 5 2
82 23 26 44 36 8 28 30 68 110 358 21 23 20 21 21 23 32 26 27 20 26 19 22 22 22 15 7 11 7 26 357 328 349 338 360 3 357 2 8 359 10 5
35 32 327 32 13 25 89 16 29 21 27 21 16 13 23 12 23 25 28 25 28 19 31 18 20 17 23 26 18 12 2 329 326 327 336 7 13 2 5 10 359 8 12
282 300 320 317 14 348 1 360 19 14 22 23 16 17 8 4 19 19 26 26 18 31 14 28 25 21 16 30 18 358 340 336 335 329 320 14 7 30 351 10 7 8 14